FW3157 Weather Reports


Display with metric or nautical units.
time (UTC)temp
F
wind
direction
speed
MPH
gust
MPH
rain 1hr
in
rain 24hr
in
rain mn
in
humidity
%
barometer
mb
20260504130536 69 209 4.0 9.0 0.00 0.00 0.00 37 1017.4
20260504130258 68 224 5.0 10.0 0.00 0.00 0.00 40 1017.5
20260504110455 67 230 3.0 9.0 0.00 0.00 0.00 38 1018.7
20260504100436 65 175 2.0 6.0 0.00 0.00 0.00 41 1019.2
20260504081731 59 271 3.0 6.0 0.00 0.00 0.00 44 1020.2
20260504081224 59 282 3.0 6.0 0.00 0.00 0.00 43 1020.3
20260504080719 59 251 2.0 6.0 0.00 0.00 0.00 43 1020.2
20260504080213 59 281 3.0 7.0 0.00 0.00 0.00 43 1020.2
20260504050513 54 250 1.0 10.0 0.00 0.02 0.00 61 1020.2
20260504050007 55 99 1.0 1.0 0.00 0.02 0.00 49 1020.1
20260504045726 55 99 0.0 1.0 0.00 0.02 0.00 49 1020.1
20260504044959 55 99 0.0 1.0 0.00 0.02 0.00 50 1020.0
20260504044459 55 99 0.0 1.0 0.00 0.02 0.00 52 1020.0
20260504043957 54 99 0.0 2.0 0.00 0.02 0.00 55 1020.0
20260504043457 53 99 1.0 2.0 0.00 0.02 0.00 55 1019.9
20260504043004 53 99 1.0 2.0 0.00 0.03 0.00 56 1019.9
20260504042455 53 46 0.0 1.0 0.00 0.03 0.00 57 1020.0
20260504041955 53 46 0.0 1.0 0.00 0.03 0.00 59 1020.0
20260504041455 52 46 0.0 1.0 0.00 0.03 0.00 60 1020.0
20260504040955 52 46 0.0 1.0 0.00 0.03 0.00 61 1020.0
20260504040455 51 46 0.0 0.0 0.00 0.03 0.00 63 1019.9
20260504035954 51 46 0.0 0.0 0.00 0.03 0.00 65 1019.9
20260504035455 51 46 0.0 0.0 0.00 0.03 0.00 65 1019.8
20260504035216 50 46 0.0 1.0 0.00 0.03 0.00 66 1019.8
20260504034450 50 46 0.0 1.0 0.00 0.03 0.00 66 1019.7
20260504033951 50 46 0.0 1.0 0.00 0.03 0.00 66 1019.7
20260504033450 50 46 0.0 1.0 0.00 0.03 0.00 66 1019.6
20260504033217 50 46 0.0 1.0 0.00 0.03 0.00 66 1019.6
20260504032709 50 46 0.0 1.0 0.00 0.03 0.00 65 1019.6
20260504031950 51 46 0.0 1.0 0.00 0.03 0.00 66 1019.5
20260504031450 51 46 0.0 1.0 0.00 0.03 0.00 66 1019.5
20260504030950 51 46 1.0 3.0 0.00 0.03 0.00 66 1019.5
20260504030450 51 46 1.0 3.0 0.00 0.03 0.00 66 1019.5
20260504025951 51 296 1.0 3.0 0.00 0.03 0.00 65 1019.5
20260504025709 51 296 1.0 3.0 0.00 0.03 0.00 65 1019.5
20260504024951 51 296 2.0 4.0 0.00 0.03 0.00 66 1019.5
20260504024451 51 296 2.0 4.0 0.00 0.03 0.00 68 1019.6
20260504023951 51 279 1.0 4.0 0.00 0.03 0.00 70 1019.6
20260504023450 51 296 2.0 5.0 0.00 0.03 0.00 72 1019.7
20260504022951 51 308 2.0 5.0 0.00 0.03 0.00 73 1019.6
20260504022711 51 262 2.0 3.0 0.00 0.03 0.00 73 1019.6
20260504021948 51 277 2.0 3.0 0.00 0.03 0.00 73 1019.5
20260504021442 51 263 2.0 3.0 0.00 0.03 0.00 72 1019.6
20260504020935 51 308 2.0 5.0 0.00 0.03 0.00 71 1019.5
20260504020917 51 308 1.0 5.0 0.00 0.03 0.00 67 1019.5
20260504015924 51 15 2.0 4.0 0.00 0.03 0.00 62 1019.4
20260504015417 51 291 2.0 6.0 0.00 0.03 0.00 59 1019.5
20260504014912 51 304 1.0 6.0 0.00 0.03 0.00 58 1019.5
20260504014406 51 83 0.0 3.0 0.00 0.03 0.00 59 1019.4
20260504013900 51 83 1.0 3.0 0.00 0.03 0.00 60 1019.3
20260504013613 51 91 2.0 3.0 0.00 0.03 0.00 61 1019.3
20260504013114 51 91 1.0 3.0 0.00 0.03 0.00 61 1019.3
20260504012344 51 99 1.0 2.0 0.00 0.03 0.00 62 1019.3
20260504011835 52 99 1.0 4.0 0.00 0.03 0.00 61 1019.2
20260504011337 52 99 2.0 4.0 0.00 0.03 0.00 60 1019.2
20260504011102 52 99 2.0 4.0 0.00 0.03 0.00 60 1019.1
20260504010332 52 91 1.0 4.0 0.00 0.03 0.00 60 1019.1
20260504005830 51 101 1.0 3.0 0.00 0.03 0.00 61 1019.1
20260504005328 52 101 2.0 3.0 0.00 0.03 0.00 61 1019.1
20260504004829 51 95 2.0 4.0 0.00 0.03 0.00 61 1019.1
20260504004328 51 102 3.0 5.0 0.00 0.03 0.00 61 1019.1
20260504003826 52 103 3.0 5.0 0.00 0.03 0.00 61 1019.1
20260504003324 53 105 1.0 5.0 0.00 0.03 0.00 61 1019.0
20260504002824 53 107 0.0 0.0 0.00 0.03 0.00 62 1019.0
20260504002544 53 107 0.0 1.0 0.00 0.03 0.00 62 1019.0
20260504001822 53 107 0.0 2.0 0.00 0.03 0.00 63 1019.0
20260504001322 53 107 1.0 2.0 0.00 0.03 0.00 63 1019.1
20260504000821 53 107 1.0 2.0 0.00 0.03 0.00 62 1019.1
20260504000540 53 107 1.0 2.0 0.00 0.03 0.00 60 1019.1
20260503235820 53 91 0.0 2.0 0.00 0.03 0.00 57 1019.1
20260503235319 53 91 0.0 2.0 0.00 0.03 0.00 57 1019.1
20260503234821 53 91 0.0 2.0 0.00 0.03 0.00 56 1019.1
20260503234314 53 91 1.0 2.0 0.00 0.03 0.00 55 1019.1
20260503233818 53 91 1.0 2.0 0.00 0.03 0.00 56 1019.1
20260503233306 53 91 1.0 4.0 0.00 0.03 0.00 57 1019.1
20260503232759 53 91 2.0 4.0 0.00 0.03 0.00 56 1019.1
20260503232254 54 105 0.0 4.0 0.00 0.03 0.00 57 1019.2
20260503231747 54 297 0.0 0.0 0.00 0.03 0.00 58 1019.2
20260503231500 54 297 0.0 0.0 0.00 0.03 0.00 58 1019.2
20260503230736 54 297 0.0 0.0 0.00 0.03 0.00 58 1019.2
20260503230231 54 297 0.0 0.0 0.00 0.03 0.00 57 1019.2
20260503230201 54 297 0.0 1.0 0.00 0.03 0.00 57 1019.2
20260503225219 55 297 0.0 3.0 0.00 0.03 0.00 56 1019.2
20260503224711 55 297 1.0 3.0 0.00 0.03 0.00 56 1019.1
20260503224425 55 99 1.0 2.0 0.00 0.03 0.00 53 1019.1
20260503223659 55 99 1.0 2.0 0.00 0.03 0.00 51 1019.1
20260503223154 55 99 0.0 1.0 0.00 0.03 0.00 50 1019.0
20260503222648 55 99 0.0 1.0 0.00 0.03 0.00 49 1019.0
20260503222406 55 99 0.0 1.0 0.00 0.03 0.00 49 1019.0
20260503221636 55 99 1.0 2.0 0.00 0.03 0.00 48 1019.0
20260503221129 55 99 1.0 3.0 0.00 0.03 0.00 48 1018.9
20260503220624 55 99 1.0 3.0 0.00 0.03 0.00 48 1018.9
20260503220117 55 128 0.0 2.0 0.00 0.03 0.00 49 1019.0
20260503215612 55 137 0.0 2.0 0.00 0.03 0.00 49 1019.0
20260503215106 55 137 0.0 2.0 0.00 0.03 0.00 49 1018.9
20260503214600 55 137 0.0 2.0 0.00 0.03 0.00 48 1019.0
20260503214054 56 137 1.0 3.0 0.00 0.03 0.00 48 1019.0
20260503213548 56 137 1.0 3.0 0.00 0.03 0.00 47 1018.9
20260503213041 56 99 2.0 4.0 0.00 0.03 0.00 46 1018.8
20260503212535 56 116 1.0 5.0 0.00 0.03 0.00 46 1018.8
20260503212029 56 117 1.0 5.0 0.00 0.03 0.00 46 1018.8
20260503212015 56 117 1.0 4.0 0.00 0.03 0.00 47 1018.8
20260503211017 56 130 1.0 4.0 0.00 0.03 0.00 48 1018.8
20260503210512 56 108 2.0 4.0 0.00 0.03 0.00 48 1018.8
20260503210225 56 109 3.0 7.0 0.00 0.03 0.00 48 1018.8
20260503205500 56 101 3.0 7.0 0.00 0.03 0.03 48 1018.8
20260503204954 56 96 3.0 7.0 0.00 0.03 0.03 47 1018.8
20260503204448 56 98 3.0 7.0 0.00 0.03 0.03 47 1018.8
20260503203942 56 94 4.0 7.0 0.00 0.03 0.03 47 1018.8
20260503203654 56 99 3.0 7.0 0.00 0.03 0.03 46 1018.7
20260503202929 57 103 2.0 5.0 0.00 0.03 0.03 46 1018.8
20260503202423 57 88 1.0 4.0 0.00 0.03 0.03 45 1018.9
20260503201917 57 113 1.0 5.0 0.00 0.03 0.03 46 1018.8
20260503201412 57 140 2.0 5.0 0.00 0.03 0.03 46 1018.8
20260503200906 57 100 2.0 5.0 0.00 0.03 0.03 47 1018.8
20260503200400 56 103 2.0 5.0 0.00 0.03 0.03 47 1018.8
20260503195854 56 108 3.0 7.0 0.00 0.03 0.03 48 1018.8
20260503195347 57 106 5.0 9.0 0.00 0.03 0.03 48 1018.8
20260503194843 57 108 5.0 9.0 0.00 0.03 0.03 47 1018.7
20260503194336 57 106 4.0 8.0 0.00 0.03 0.03 48 1018.7
20260503193829 57 103 5.0 10.0 0.00 0.03 0.03 49 1018.7
20260503193324 57 116 5.0 10.0 0.00 0.03 0.03 49 1018.7
20260503192818 57 116 6.0 10.0 0.00 0.03 0.03 48 1018.7
20260503192313 57 122 6.0 10.0 0.00 0.03 0.03 48 1018.7
20260503191806 57 100 5.0 9.0 0.00 0.03 0.03 48 1018.6
20260503191259 58 88 5.0 8.0 0.00 0.03 0.03 48 1018.6
20260503191022 58 91 4.0 8.0 0.00 0.03 0.03 49 1018.6
20260503190248 58 113 3.0 8.0 0.00 0.03 0.03 48 1018.6
20260503190010 58 72 2.0 6.0 0.00 0.03 0.03 46 1018.5
20260503185455 59 104 1.0 6.0 0.00 0.03 0.03 45 1018.6
20260503184945 59 120 2.0 5.0 0.00 0.03 0.03 45 1018.5
20260503184225 60 104 2.0 6.0 0.00 0.03 0.03 43 1018.4
20260503183717 60 145 2.0 6.0 0.00 0.03 0.03 40 1018.3
20260503183212 61 122 1.0 5.0 0.00 0.03 0.03 36 1018.3
20260503182929 61 95 1.0 4.0 0.00 0.03 0.03 35 1018.2
20260503182202 61 112 1.0 5.0 0.00 0.03 0.03 36 1018.1
20260503181702 61 112 2.0 5.0 0.00 0.03 0.03 39 1018.0
20260503181202 61 130 2.0 5.0 0.00 0.03 0.03 38 1018.0
20260503180703 61 113 3.0 6.0 0.00 0.03 0.03 36 1017.9
20260503180202 60 97 3.0 7.0 0.00 0.03 0.03 37 1017.9
20260503175702 61 120 2.0 7.0 0.00 0.03 0.03 37 1017.8
20260503175427 61 141 3.0 6.0 0.00 0.03 0.03 37 1017.8
20260503175159 61 94 3.0 6.0 0.00 0.03 0.03 37 1017.8
20260503174202 61 94 3.0 6.0 0.00 0.03 0.03 37 1017.7
20260503173702 61 94 2.0 6.0 0.00 0.03 0.03 36 1017.6
20260503173202 62 89 2.0 5.0 0.00 0.03 0.03 36 1017.6
20260503172702 62 86 2.0 6.0 0.00 0.03 0.03 36 1017.5
20260503172202 62 74 3.0 6.0 0.00 0.03 0.03 35 1017.4
20260503171702 63 81 2.0 6.0 0.00 0.03 0.03 33 1017.4
20260503171202 63 82 1.0 3.0 0.00 0.03 0.03 31 1017.3
20260503170915 64 93 1.0 4.0 0.00 0.03 0.03 31 1017.2
20260503170200 64 82 2.0 4.0 0.00 0.03 0.03 30 1017.2
20260503160139 65 73 2.0 5.0 0.00 0.03 0.03 29 1017.0
20260503150854 64 302 2.0 7.0 0.00 0.03 0.03 30 1017.1
20260503150133 64 226 2.0 7.0 0.00 0.03 0.03 31 1017.1
20260503140123 64 217 1.0 6.0 0.00 0.03 0.03 35 1017.5